Regional Weather Roundup
Issued by NWS Northern Indiana

Home | Current Version | Previous Version | Text Only | Print | Product List | Glossary On
Versions: 1 2 3 4 5 6 7 8 9 10 11 12 13 14 15 16 17 18 19 20 21 22 23 24 25 26 27 28 29 30 31 32 33 34 35 36 37 38 39 40 41 42 43 44 45 46 47 48 49 50
055
ASUS43 KIWX 170810
RWRIWX

KIWX WEATHER ROUNDUP
NATIONAL WEATHER SERVICE NORTHERN INDIANA
300 AM EST TUE JAN 17 2017

NOTE: "FAIR" INDICATES FEW OR NO CLOUDS BELOW 12,000 FEET WITH NO
SIGNIFICANT WEATHER AND/OR OBSTRUCTIONS TO VISIBILITY.

* THESE STATIONS ARE NOT UNDER NWS QUALITY CONTROL. THEY ALSO MAY NOT
  REPORT WEATHER SUCH AS PRECIPITATION OR FOG.

INZ001>027-170900-
NORTHERN INDIANA

CITY           SKY/WX    TMP DP  RH WIND       PRES   REMARKS
GARY*          TSTM      50  50  99 SE9       29.74F
VALPARAISO     LGT RAIN  49  49 100 SE9       29.76F VSB 1
LAPORTE*       FOG       40  40 100 E8        29.78F VSB 1/4
KNOX*          CLOUDY    48  45  87 S14       29.78F
SOUTH BEND     LGT RAIN  40  40 100 SE12      29.81F VSB 1/2
GOSHEN         LGT RAIN  42  40  92 SE9       29.83F FOG
ROCHESTER*     LGT RAIN  50  50 100 S9        29.82F
WARSAW*        DRIZZLE   46  45  93 SE7       29.83F
FORT WAYNE     LGT RAIN  46  45  96 SE8       29.88F VSB 3/4
PERU/GRISSOM   CLOUDY    50  50 100 S10       29.81F
MARION*        CLOUDY    52  52 100 S13       29.87F FOG

$$
INZ028>050-170900-
CENTRAL INDIANA

CITY           SKY/WX    TMP DP  RH WIND       PRES   REMARKS
LAFAYETTE      CLOUDY    54  54 100 S10G20    29.80F
KOKOMO*        CLOUDY    51  50  96 S15       29.85F
MUNCIE*        CLOUDY    55  52  89 S10       29.88F
INDIANAPOLIS   CLOUDY    55  54  96 S13       29.87F

$$
MIZ043>046-050>051-056>058-064>065-071>073-077>080-170900-
SOUTHWEST LOWER MICHIGAN

CITY           SKY/WX    TMP DP  RH WIND       PRES   REMARKS
BATTLE CREEK   LGT RAIN  37  37 100 SE9       29.88F
BENTON HARBOR  CLOUDY    44  41  89 SE15      29.79F FOG
COLDWATER*     CLOUDY    38  38 100 SE8       29.88F
HILLSDALE*     LGT RAIN  34  32  93 E14       29.90F WCI  24
HOLLAND        LGT RAIN  36  34  92 E10       29.85F
GRAND RAPIDS   CLOUDY    34  33  96 E15       29.89F FOG     WCI  24
KALAMAZOO      CLOUDY    39  37  92 SE8       29.86F FOG
STURGIS*       CLOUDY    39  39 100 SE12G18   29.85F FOG
THREE RIVERS*  CLOUDY    37  37 100 E8        29.86F FOG

$$
OHZ001>008-015>018-024>025-170900-
NORTHWEST OHIO

CITY           SKY/WX    TMP DP  RH WIND       PRES   REMARKS
DEFIANCE       CLOUDY    39  36  89 E6        29.92F FOG
FINDLAY        LGT RAIN  46  43  89 SE13      29.92F
TOLEDO EXPRESS LGT RAIN  35  35 100 E7        29.95F FOG     WCI  29
TOLEDO METCALF RAIN      36  36 100 E9        29.96F VSB 1
LIMA           LGT RAIN  50  50 100 S20       29.91F

$$
AND FOR LAKE MICHIGAN COASTAL AND OPEN LAKE BUOY OBSERVATIONS

STATION/POSITION TEMP    WIND        PRES    VSBY  WAVE
                 AIR SEA DIR/SP/G                  HT/PER
                 (F)     (DEG/KT/KT) (MB)    (MI)  (FT/S)
CALUMET HARBOR    48     150/ 12/ 18 1006.6F
BURNS HARBOR      49     150/  9/ 16 1008.1F

$$
&&




USA.gov is the U.S. government's official web portal to all federal, state and local government web resources and services.